Flag for U.S.A. Weather past 2 weeks in Cheyenne, Wyoming, U.S.A.

Now
78 °F

Sunny.


Feels Like: 79 °F
Forecast: 62 / 81 °F
Wind: 8 mph from Northeast

Location: Cheyenne Airport

Current Time: Jul 1, 2015 at 11:59:46 AM

Latest Report: Jul 1, 2015 at 10:53 AM


Visibility: 10 mi

Pressure: 29.95 "Hg

Humidity: 40%

Dew point: 52 °F

Location of CheyenneLocation

Historic Weather in Cheyenne — Graph

°F

Cheyenne temperature yesterday

Maximum temperature yesterday: 88 °F (at 12:53 PM)
Minimum temperature yesterday: 57 °F (at 3:53 AM)
Average temperature yesterday: 71 °F

Past Weeks' High & Low Weather Summary

 TemperatureHumidityPressure
High88 °F (Jun 19, 11:53 AM)100% (Jun 19, 3:03 AM)30.25 "Hg (Jun 19, 3:03 AM)
Low50 °F (Jun 17, 4:53 AM)16% (Jun 19, 11:53 AM)29.67 "Hg (Jun 19, 11:53 PM)
Average69 °F58%29.94 "Hg
* Reported Jun 16 9:53 AM — Jul 1 9:53 AM, Cheyenne, Weather by CustomWeather, © 2015

Note: Actual official high and low records may vary slightly from our data, if they occured in-between our weather recording intervals... More about our weather records

Advertising

Cheyenne weather history for previous 24 hours

 ConditionsComfort  
Time TempWeatherWind HumidityBarometerVisibility
9:53 AM
Wed, Jul 1
77 °FSunny.13 mph44%29.95 "Hg10 mi
8:53 AM75 °FSunny.12 mph47%29.94 "Hg10 mi
7:53 AM71 °FSunny.7 mph55%29.94 "Hg10 mi
6:53 AM66 °FSunny.9 mph63%29.95 "Hg10 mi
5:53 AM63 °FClear.12 mph65%29.91 "Hg10 mi
4:53 AM62 °FClear.9 mph70%29.90 "Hg10 mi
3:53 AM62 °FClear.12 mph73%29.87 "Hg10 mi
2:53 AM63 °FClear.10 mph73%29.86 "Hg10 mi
1:53 AM61 °FClear.3 mph87%29.88 "Hg10 mi
12:53 AM60 °FClear.6 mph86%29.89 "Hg10 mi
11:53 PM
Tue, Jun 30
60 °FClear.7 mph86%29.90 "Hg10 mi
9:53 PM61 °FLight rain. Mostly cloudy.9 mph87%29.94 "Hg10 mi
8:53 PM66 °FThunderstorms. Mostly cloudy.30 mph70%29.95 "Hg8 mi
7:53 PM68 °FSunny.17 mph61%29.88 "Hg10 mi
6:53 PM66 °FThunderstorms. Mostly cloudy.22 mph65%29.94 "Hg7 mi
5:53 PM81 °FSunny.13 mph35%29.86 "Hg10 mi
4:53 PM80 °FPartly sunny.18 mph34%29.87 "Hg10 mi
3:53 PM86 °FPassing clouds.No wind25%29.86 "Hg10 mi
2:53 PM84 °FOvercast.8 mph24%29.88 "Hg10 mi
1:53 PM83 °FLight rain. Overcast.10 mph23%29.89 "Hg10 mi
12:53 PM88 °FPartly sunny.No wind18%29.87 "Hg10 mi
11:53 AM87 °FSunny.3 mph22%29.88 "Hg10 mi
Weather by CustomWeather, © 2015

See weather overviewHow to use our weather pages